Pierre, SD

5:39 PM CST on February 27, 2017 (GMT -0600)
Pierre Regional

Weather History for KPIR - March, 2014

Change the Weather History Date:

Wednesday, March 26, 2014

  Actual Average Record
Temperature  
Mean Temperature 50 °F 38 °F  
Max Temperature 72 °F 50 °F 79 °F (1993)
Min Temperature 27 °F 27 °F -3 °F (1964)
Degree Days  
Heating Degree Days 15 27  
Month to date heating degree days 929 820  
Since 1 July heating degree days 6924 6318  
Cooling Degree Days 0 0  
Month to date cooling degree days 0 0  
Year to date cooling degree days 0 0  
Moisture  
Dew Point 22 °F    
Average Humidity 44    
Maximum Humidity 68    
Minimum Humidity 19    
Precipitation  
Precipitation 0.00 in 0.05 in 1.18 in (1950)
Month to date precipitation 0.34 0.97  
Year to date precipitation 0.91 1.98  
Snow  
Snow 0.00 in 0.20 in 5.00 in (1942)
Month to date snowfall 3.7 5.2  
Since 1 July snowfall 28.6 27.0  
Snow Depth 0.00 in    
Sea Level Pressure  
Sea Level Pressure 29.48 in    
Wind  
Wind Speed 16 mph (ESE)    
Max Wind Speed 31 mph    
Max Gust Speed 38 mph    
Visibility 10 miles    
Events      
T = Trace of Precipitation, MM = Missing Value Source: NWS Daily Summary

Daily Weather History Graph

Daily Weather History Graph

Search for Another Location

Airport or City:

Trip Planner

Search our weather history database for the weather conditions in past years. The results will help you decide how hot, cold, wet, or windy it might be!

Date:

Astronomy

Mar. 26, 2014 Rise Set
Actual Time 7:33 AM CDT 8:01 PM CDT
Civil Twilight 7:04 AM CDT 8:30 PM CDT
Nautical Twilight 6:29 AM CDT 9:04 PM CDT
Astronomical Twilight 5:54 AM CDT 9:40 PM CDT
Moon 4:52 AM CDT (3/26) 3:32 PM CDT (3/26)
Length of Visible Light 13h 26m
Length of Day
12h 27m
Waning Crescent, 21% of the Moon is Illuminated
Mar 26
Waning Crescent
Mar 30
New
Apr 7
First Quarter
Apr 15
Full
Apr 22
Last Quarter

Hourly Weather History & Observations

Time (CDT) Temp. Windchill Dew Point Humidity Pressure Visibility Wind Dir Wind Speed Gust Speed Precip Events Conditions
12:53 AM 28.0 °F 16.5 °F 12.0 °F 51% 29.88 in 10.0 mi ESE 15.0 mph 25.3 mph N/A   Clear
1:53 AM 28.0 °F 16.5 °F 12.9 °F 53% 29.83 in 10.0 mi ESE 15.0 mph - N/A   Clear
2:53 AM 28.9 °F 17.7 °F 14.0 °F 54% 29.79 in 10.0 mi SE 15.0 mph - N/A   Clear
3:53 AM 28.0 °F 16.1 °F 15.1 °F 58% 29.74 in 10.0 mi SE 16.1 mph - N/A   Clear
4:53 AM 28.0 °F 17.0 °F 16.0 °F 61% 29.69 in 10.0 mi ESE 13.8 mph - N/A   Clear
5:53 AM 27.0 °F 14.7 °F 16.0 °F 63% 29.65 in 10.0 mi ESE 16.1 mph - N/A   Clear
6:53 AM 28.0 °F 16.1 °F 17.1 °F 63% 29.62 in 10.0 mi ESE 16.1 mph - N/A   Clear
7:53 AM 27.0 °F 15.6 °F 18.0 °F 69% 29.60 in 10.0 mi SE 13.8 mph - N/A   Clear
8:53 AM 30.9 °F 21.7 °F 19.0 °F 61% 29.57 in 10.0 mi ESE 11.5 mph - N/A   Clear
9:53 AM 37.0 °F 28.1 °F 21.0 °F 52% 29.52 in 10.0 mi SE 15.0 mph - N/A   Clear
10:53 AM 44.1 °F 36.8 °F 24.1 °F 45% 29.49 in 10.0 mi SSE 16.1 mph - N/A   Clear
11:53 AM 50.0 °F - 25.0 °F 38% 29.46 in 10.0 mi South 13.8 mph - N/A   Clear
12:53 PM 54.0 °F - 26.1 °F 34% 29.40 in 10.0 mi SSE 11.5 mph - N/A   Clear
1:53 PM 57.9 °F - 27.0 °F 31% 29.36 in 10.0 mi SSE 12.7 mph - N/A   Clear
2:53 PM 63.0 °F - 28.0 °F 27% 29.31 in 10.0 mi SSE 12.7 mph - N/A   Clear
3:53 PM 68.0 °F - 28.0 °F 22% 29.27 in 10.0 mi SSE 12.7 mph - N/A   Clear
4:53 PM 70.0 °F - 28.0 °F 21% 29.24 in 10.0 mi East 6.9 mph - N/A   Clear
5:53 PM 72.0 °F - 27.0 °F 19% 29.23 in 10.0 mi NE 4.6 mph - N/A   Clear
6:53 PM 60.1 °F - 30.9 °F 33% 29.25 in 10.0 mi North 23.0 mph 28.8 mph N/A   Clear
7:53 PM 48.9 °F - 28.9 °F 46% 29.29 in 10.0 mi NNW 25.3 mph - N/A   Clear
8:53 PM 46.0 °F 37.4 °F 27.0 °F 47% 29.31 in 10.0 mi NNW 25.3 mph 35.7 mph N/A   Clear
9:53 PM 41.0 °F 31.4 °F 26.1 °F 55% 29.34 in 10.0 mi North 21.9 mph - N/A   Clear
10:53 PM 37.9 °F 27.3 °F 26.1 °F 62% 29.37 in 10.0 mi NNW 21.9 mph - N/A   Clear
11:53 PM 37.0 °F 27.0 °F 25.0 °F 62% 29.40 in 10.0 mi NNW 18.4 mph - N/A   Clear